www.pogodaiklimat.ru

Погода и климат >> Архив погоды >> Индонезия >> Баликпапан


ПОГОДА в Баликпапане

  • Прогноз погоды в Баликпапане
  • Монитор погоды в Баликпапане

АРХИВ ПОГОДЫ в Баликпапане

Время (UTC), дата Ветер
(напр.,м/с)
 
Видим.   Явления Облачность Т
(С)
Тd
(С)
f
(%)
Тe
(С)
Тes
(С)
Комфортность P
(гПа)
Po
(гПа)
Тmin
(С)
Tmax
(С)
R
(мм)
R24
(мм)
S
(см)
03 18.06 ЮЗ 3 10 км 9/3 600 м
[Sc Ac As Ci fib]
+28.9 +25.6 82 +43 +48 опасность
перегрева
1011.0 1010.4
06 18.06 ЮЗ 2 10 км 4/3 600 м
[Sc Ac trans Ci fib]
+29.8 +25.7 79 +44 +54 опасность
перегрева
1008.8 1008.1
09 18.06 Ю 2 10 км 6/4 600 м
[Sc Ac trans Ci fib]
+29.5 +25.6 80 +44 +45 опасность
перегрева
1007.8 1007.2
12 18.06 Ю 2 9000 м 6/3 600 м
[Sc Ac As Ci fib]
+28.4 +25.6 85 +42 +42 опасность
перегрева
1009.3 1008.6 +30.5
15 18.06 ЮЗ 1 9000 м 8/3 600 м
[Sc Ac As Ci fib]
+27.9 +25.2 85 +40 +40 очень
душно
1010.5 1009.9
18 18.06 Ю 2 9000 м в посл. час дождь 8/4 600 м
[Sc Ac As Ci fib]
+27.4 +26.1 93 +41 +41 опасность
перегрева
1009.3 1008.6 2
21 18.06 З 2 9000 м 8/4 600 м
[Sc Ac As Ci fib]
+25.9 +25.0 95 +37 +37 очень
душно
1009.7 1009.1
00 19.06 З 2 10 км в посл. час дождь {гроза} 9/4
[Cb cap Ac As Ci fib]
+26.1 +24.9 93 +37 +38 очень
душно
1011.3 1010.6 +25.2 0.3
03 19.06 ЮЗ 4 10 км {дождь} 9/4
[Cb cap Ac As Ci fib]
+26.1 +24.0 88 +36 +40 очень
душно
1011.2 1010.5 0.0
06 19.06 ЮЗ 4 10 км {дождь} 9/4 540 м
[Cu med, cong Ac As Ci fib]
+28.1 +25.5 86 +41 +45 опасность
перегрева
1008.8 1008.2 0.0
09 19.06 ЮЗ 2 10 км 8/4 540 м
[Cu med, cong Ac As Ci fib]
+27.7 +25.1 86 +40 +41 очень
душно
1008.0 1007.4
12 19.06 Ю 2 9000 м 9/4 540 м
[Cu med, cong Ac As Ci fib]
+27.1 +25.0 88 +39 +39 очень
душно
1009.6 1008.9 +28.1
15 19.06 ЮЗ 5 9000 м 9/4
[Cb cap Ac As Ci fib]
+26.9 +25.3 91 +39 +39 очень
душно
1010.7 1010.0
18 19.06 ЮЗ 3 9000 м 9/5 540 м
[Cu med, cong Ac As Ci fib]
+26.8 +24.7 88 +38 +38 очень
душно
1009.8 1009.1
21 19.06 З 3 9000 м 9/4 540 м
[Cu med, cong Ac As Ci fib]
+25.1 +24.3 95 +35 +35 очень
душно
1009.6 1008.9
00 20.06 З 3 10 км {дождь} 9/4 540 м
[Sc Ac trans Ci fib]
+26.4 +24.8 91 +38 +39 очень
душно
1011.4 1010.7 +24.6 0.0
03 20.06 ЮЗ 5 10 км 9/4 540 м
[Sc Ac As Ci fib]
+28.3 +23.3 74 +38 +41 очень
душно
1011.6 1010.9
06 20.06 Ю 3 10 км 6/3
[Cb cap As trans Ci fib]
+30.5 +25.0 73 +44 +51 опасность
перегрева
1009.4 1008.7
09 20.06 Ю 3 10 км {дождь} 6/3 540 м
[Cu med, cong Ac As Ci sp]
+27.6 +25.1 86 +40 +41 очень
душно
1008.4 1007.8 0.0
12 20.06 Ю 4 9000 м {дождь} 6/3 600 м
[Cu med, cong Ac As Ci fib]
+27.1 +24.0 83 +37 +37 очень
душно
1009.4 1008.7 +30.6 0.0
15 20.06 ЮЗ 2 9000 м 8/3 600 м
[Cu med, cong Ac trans Ci fib]
+27.2 +24.5 85 +38 +38 очень
душно
1010.6 1010.0
18 20.06 З 3 9000 м {дождь} 9/4 540 м
[Cu med, cong Ac As Ci fib]
+25.2 +24.7 97 +35 +35 очень
душно
1009.3 1008.6 0.0
21 20.06 СЗ 2 9000 м 9/4 540 м
[Cu med, cong Ac As Ci fib]
+24.8 +24.1 96 +34 +34 очень
душно
1009.1 1008.4
00 21.06 ЮЗ 2 10 км 6/3 600 м
[Cu med, cong Ac As Ci fib]
+27.1 +25.1 89 +39 +41 очень
душно
1010.6 1010.0 +24.3 0.2
03 21.06 ЮЗ 4 10 км 6/3 600 м
[Cu med, cong Ac As Ci fib]
+28.9 +26.0 84 +43 +50 опасность
перегрева
1009.8 1009.2
06 21.06 ЮЗ 4 10 км 5/3 600 м
[Cu med, cong As op Ci fib]
+30.0 +26.3 81 +46 +52 опасность
перегрева
1007.2 1006.6
09 21.06 Ю 2 10 км 5/1 600 м
[Cu med, cong As trans Ci fib]
+29.1 +24.9 78 +42 +43 опасность
перегрева
1006.6 1005.9
12 21.06 штиль 0 9000 м 8/3 600 м
[Cu med, cong As trans Ci fib]
+27.2 +25.6 91 +40 +40 очень
душно
1008.2 1007.5 +30.3
15 21.06 Ю 2 9000 м 8/4 600 м
[Cu med, cong Ac As Ci fib]
+27.7 +25.6 88 +41 +41 опасность
перегрева
1009.3 1008.6
18 21.06 Ю 2 9000 м 9/4 600 м
[Cu med, cong Ac As Ci fib]
+27.8 +25.3 86 +40 +40 очень
душно
1008.7 1008.0
21 21.06 ЮЗ 4 9000 м 9/4
[Cb cap Ac As Ci fib]
+26.6 +23.2 82 +36 +36 очень
душно
1008.6 1008.0
00 22.06 ЮЗ 3 500 м сильн. дождь 10/8
[Cb cap As op]
+25.7 +24.6 94 +36 +36 очень
душно
1009.6 1009.0 +25.0 0.0
03 22.06 В 1 9000 м слаб. дождь 10/8
[Cb cap As op]
+26.4 +25.3 94 +38 +39 очень
душно
1009.3 1008.6 29
06 22.06 ЮЗ 4 10 км {дождь} 6/4 540 м
[Cu med, cong Ac trans Ci fib]
+29.9 +26.5 82 +46 +51 опасность
перегрева
1006.9 1006.2 0.0
09 22.06 Ю 2 10 км 6/3 600 м
[Cu med, cong As op Ci fib]
+29.4 +25.9 81 +44 +45 опасность
перегрева
1006.1 1005.4
12 22.06 Ю 1 9000 м 6/3 600 м
[Cu med, cong As op Ci fib]
+28.3 +26.0 87 +42 +42 опасность
перегрева
1007.8 1007.2 +30.2
15 22.06 ЮЗ 2 9000 м 8/4
[Cb cap As trans Ci fib]
+27.8 +25.4 87 +41 +41 опасность
перегрева
1009.3 1008.7
18 22.06 З 5 6000 м слаб. дождь 9/5
[Cb cap As op Ci fib]
+24.8 +23.6 93 +34 +34 очень
душно
1009.2 1008.5 0.6
21 22.06 З 1 9000 м {дождь} 9/4
[Cb cap As op Ci fib]
+24.0 +24.0 100 +33 +33 очень
душно
1008.8 1008.2 2
00 23.06 ЮЗ 3 10 км {дождь} 9/4 540 м
[Cb cap Ac As Ci fib]
+26.6 +25.4 93 +39 +40 очень
душно
1010.2 1009.6 +23.6 40
03 23.06 ЮЗ 3 10 км 6/3 540 м
[Cu med, cong Ac As Ci fib]
+29.4 +25.1 78 +43 +51 опасность
перегрева
1010.2 1009.6
06 23.06 ЮЗ 2 10 км 5/3 600 м
[Sc As trans Ci fib]
+30.3 +25.9 77 +45 +54 опасность
перегрева
1008.1 1007.5
09 23.06 Ю 1 10 км 5/3 540 м
[Sc Ac trans Ci fib]
+30.1 +26.0 79 +45 +47 опасность
перегрева
1007.2 1006.5
12 23.06 Ю 2 9000 м 8/5 540 м
[Cu med, cong Ac As Ci fib]
+28.4 +26.1 87 +43 +43 опасность
перегрева
1009.3 1008.6 +31.1
15 23.06 З 1 9000 м 9/5 540 м
[Cu med, cong Ac As Ci fib]
+27.7 +25.4 87 +40 +40 очень
душно
1010.3 1009.7
18 23.06 штиль 0 9000 м 9/4 600 м
[Cu med, cong Ac As Ci fib]
+27.0 +25.1 89 +39 +39 очень
душно
1009.9 1009.3
21 23.06 З 2 9000 м 9/4 600 м
[Cu med, cong Ac As Ci fib]
+26.6 +25.5 94 +39 +39 очень
душно
1010.3 1009.6
00 24.06 ЮЗ 2 10 км {дождь} 5/3 600 м
[Cu med, cong Ac trans Ci fib]
+27.2 +25.3 89 +39 +42 очень
душно
1011.8 1011.1 +24.5 3
03 24.06 Ю 3 10 км 9/4
[Cb cap Ac As Ci fib]
+28.2 +25.7 86 +42 +46 опасность
перегрева
1011.7 1011.1
06 24.06 Ю 4 10 км 5/3 540 м
[Cu med, cong Ac trans Ci fib]
+30.1 +25.7 77 +44 +50 опасность
перегрева
1009.7 1009.1
09 24.06 ЮЗ 2 10 км 5/3 600 м
[Sc Ac trans Ci fib]
+29.4 +25.1 78 +43 +44 опасность
перегрева
1009.0 1008.3
12 24.06 ЮЗ 1 9000 м 8/3 540 м
[Cu med, cong Ac As Ci fib]
+27.4 +24.6 85 +39 +39 очень
душно
1010.5 1009.8 +30.7
15 24.06 Ю 2 9000 м 8/4 540 м
[Cu med, cong Ac As Ci fib]
+28.3 +25.4 84 +41 +41 опасность
перегрева
1011.7 1011.1
18 24.06 Ю 3 9000 м 8/5 540 м
[Cb cap Ac As Ci fib]
+27.7 +25.2 86 +40 +40 очень
душно
1010.9 1010.2
21 24.06 З 2 9000 м 9/4 540 м
[Cu med, cong Ac As Ci fib]
+26.8 +25.3 92 +39 +39 очень
душно
1010.8 1010.1
00 25.06 ЮЗ 3 10 км 9/4 540 м
[Cu med, cong Ac As Ci fib]
+27.3 +25.8 92 +41 +42 опасность
перегрева
1012.2 1011.6 +25.7

 

Местоположение метеостанции Баликпапан (Индонезия): широта -1.27 долгота 116.90 высота над уровнем моря 3 м.

В архиве по умолчанию представлена погода в Баликпапане за последнюю неделю. Архивные данные за месяц целиком и за предыдущие месяцы, начиная с января 2011 года, Вы можете получить, выбрав интересующий диапазон дат из раскрывающегося списка и нажав кнопку "Ввод!".


*Определитесь, кто Вы:
робот инопланетянин человек

Внимание! Время в таблицах - всемирное. Для получения местного времени необходимо прибавить поправку, которая равна 8 ч.

Смотрите также архив погоды в соседних городах и на ближайших метеорологических станциях:

Погода в Самаринде (Индонезия) (77 км)
Погода в Муаратевехе (Индонезия) (225 км)
Погода в Котабару (Индонезия) (249 км)
Погода в Маджене (Индонезия) (271 км)
Погода в Палу (Индонезия) (321 км)
Погода в Паоанкарая (Индонезия) (324 км)
Погода в Банджармасине (Индонезия) (339 км)
Погода в Танджунгредепе (Индонезия) (382 км)
Погода в Масамбе (Индонезия) (410 км)
Погода в Посо (Индонезия) (426 км)

Пояснения к столбцам:

Ветер - указаны скорость ветра в м/с - средняя за 10 мин, порывы в срок и между сроками (в фигурных скобках) и направление, откуда дует ветер: С - северный, СВ - северо-восточный, В - восточный, ЮВ - юго-восточный, Ю - южный, ЮЗ - юго-западный, З - западный, СЗ - северо-западный.
Видимость - горизонтальная дальность видимости в метрах или километрах. При видимости от 1 до 10 км при отсутствии осадков обычно наблюдается дымка, при ухудшении видимости до 1 км и менее - туман. В сухую погоду видимость может ухудшаться дымом, пылью или мглою.
Явления - указаны атмосферные явления, наблюдавшиеся в срок или в последний час перед сроком; фигурными скобками обозначены явления, наблюдавшиеся между сроками (за 1-3 часа до срока); квадратными скобками обозначены град или гололедные отложения с указанием их диаметра в мм.
Облачность - указаны через наклонную черту общая и нижняя облачность в баллах и высота нижней границы облаков в метрах; квадратными скобками обозначены формы облаков: Ci - перистые, Cs - перисто-слоистые, Cc - перисто-кучевые, Ac - высококучевые, As - высокослоистые, Sc - слоисто-кучевые, Ns - слоисто-дождевые, Cu - кучевые, Cb - кучево-дождевые. Подробнее классификацию облаков см. в Атласе облаков (PDF).
T - Температура воздуха - температура, измеренная на высоте 2 м над землей.
Td - Температура точки росы - температура, при понижении до которой содержащийся в воздухе водяной пар достигнет насыщения.
f - Относительная влажность воздуха - влажноcть воздуха, измеренная на высоте 2 м над землей.
Te - Эффективная температура - температура, которую ощущает одетый по сезону человек в тени. Характеристика душности погоды. При расчете учитывается влияние влажности воздуха и скорости ветра на теплоощущения человека.
Tes - Эффективная температура на солнце - температура, которую ощущает человек, с поправкой на солнечный нагрев. Характеристика знойности погоды. Зависит от высоты солнца над горизонтом, облачности и скорости ветра. Ночью, в пасмурную погоду, а также при ветре 12 м/с и более поправка равна нулю.
P - Атмосферное давление - приведенное к уровню моря атмосферное давление.
Po - Атмосферное давление - измеренное на уровне метеостанции атмосферное давление.
Tmin - Минимальная температура - минимум температуры воздуха на высоте 2 м над землей.
Tmax - Максимальная температура - максимум температуры воздуха на высоте 2 м над землей.
R - Количество осадков - Количество выпавших осадков за период времени, мм. При наведении курсора мыши на число - период времени, за который выпало указанное количество осадков.
R24 - Количество осадков - Количество выпавших осадков за 24 часа, мм.
S - Снежный покров - Высота снежного покрова, см. При наведении курсора мыши на число - состояние снежного покрова и степень покрытия местности в баллах.